QPF
0.00 0.00 0.00 0.00 0.00 0.00 0.00 0.00 0.00 0.00 0.00 0.00 0.00 0.02 0.25 0.10 0.10 0.04 0.02 0.02 0.01 0.00 0.00 0.00 0.00 0.00 0.00 0.00 0.00 0.00 0.00 0.00 0.00 0.00 0.00 0.00 0.00 0.00 0.00 0.01 0.08 0.10 0.10 0.09
0.00 0.00 0.00 0.00 0.00 0.00 0.01 0.01 0.00 0.00 0.00 0.00 0.00 0.00 0.02 0.01 0.01 0.02 0.01 0.00 0.00 0.00 0.00 0.00 0.00 0.00 0.00 0.00 0.00 0.00 0.00 0.00 0.00 0.00 0.00 0.00 0.00 0.00 0.00 0.01 0.09 0.19 0.09 0.06
0.00 0.00 0.00 0.01 0.01 0.02 0.08 0.03 0.01 0.01 0.01 0.00 0.00 0.01 0.00 0.01 0.00 0.00 0.00 0.00 0.00 0.00 0.00 0.00 0.00 0.00 0.00 0.00 0.00 0.00 0.00 0.00 0.00 0.00 0.00 0.00 0.00 0.00 0.00 0.01 0.03 0.12 0.27 0.19
0.00 0.00 0.00 0.07 0.02 0.02 0.08 0.03 0.01 0.01 0.00 0.00 0.00 0.00 0.00 0.00 0.00 0.00 0.00 0.00 0.00 0.00 0.00 0.00 0.00 0.00 0.00 0.00 0.00 0.00 0.00 0.00 0.00 0.00 0.00 0.00 0.00 0.01 0.02 0.01 0.04 0.05 0.08 0.26
0.00 0.00 0.00 0.00 0.00 0.01 0.04 0.04 0.01 0.01 0.00 0.00 0.00 0.00 0.00 0.00 0.00 0.00 0.00 0.00 0.00 0.00 0.00 0.00 0.00 0.00 0.00 0.00 0.00 0.00 0.00 0.00 0.00 0.00 0.00 0.00 0.00 0.00 0.06 0.05 0.12 0.08 0.03 0.02
0.02 0.01 0.02 0.00 0.00 0.00 0.01 0.04 0.01 0.02 0.01 0.02 0.00 0.00 0.01 0.00 0.00 0.00 0.00 0.00 0.00 0.00 0.00 0.00 0.00 0.00 0.00 0.00 0.00 0.00 0.00 0.00 0.00 0.00 0.00 0.00 0.00 0.00 0.01 0.06 0.08 0.19 0.25 0.08
0.00 0.06 0.06 0.01 0.00 0.00 0.00 0.03 0.01 0.03 0.05 0.04 0.05 0.05 0.01 0.00 0.00 0.00 0.00 0.00 0.00 0.00 0.00 0.00 0.00 0.00 0.00 0.00 0.00 0.00 0.00 0.00 0.00 0.00 0.00 0.00 0.00 0.00 0.00 0.02 0.17 0.16 0.16 0.25
0.01 0.00 0.01 0.00 0.00 0.02 0.04 0.05 0.07 0.07 0.10 0.12 0.10 0.04 0.00 0.00 0.00 0.00 0.00 0.00 0.00 0.00 0.00 0.00 0.00 0.00 0.00 0.00 0.00 0.00 0.00 0.00 0.00 0.00 0.00 0.00 0.00 0.00 0.00 0.00 0.08 0.18 0.16 0.12
0.03 0.04 0.03 0.02 0.04 0.06 0.09 0.10 0.10 0.11 0.11 0.08 0.04 0.00 0.00 0.00 0.00 0.00 0.00 0.00 0.00 0.00 0.00 0.00 0.00 0.00 0.00 0.00 0.00 0.00 0.00 0.00 0.00 0.00 0.00 0.00 0.00 0.00 0.00 0.01 0.06 0.19 0.24 0.19
0.03 0.04 0.01 0.04 0.03 0.02 0.05 0.06 0.03 0.01 0.01 0.00 0.00 0.00 0.00 0.00 0.00 0.00 0.00 0.00 0.00 0.00 0.00 0.00 0.00 0.00 0.00 0.00 0.00 0.00 0.00 0.00 0.00 0.00 0.00 0.00 0.00 0.00 0.00 0.00 0.03 0.15 0.24 0.26
0.00 0.01 0.02 0.03 0.01 0.01 0.00 0.00 0.00 0.00 0.00 0.00 0.00 0.00 0.00 0.00 0.00 0.00 0.00 0.00 0.00 0.00 0.00 0.00 0.00 0.00 0.00 0.00 0.00 0.00 0.00 0.00 0.00 0.00 0.00 0.00 0.00 0.00 0.00 0.02 0.07 0.12 0.19 0.23
0.00 0.01 0.02 0.01 0.00 0.00 0.00 0.00 0.00 0.00 0.00 0.00 0.00 0.00 0.00 0.00 0.00 0.00 0.00 0.00 0.00 0.00 0.00 0.00 0.00 0.00 0.00 0.00 0.00 0.00 0.00 0.00 0.00 0.01 0.00 0.00 0.00 0.00 0.02 0.05 0.13 0.19 0.22 0.20
0.00 0.00 0.00 0.00 0.00 0.00 0.00 0.00 0.00 0.00 0.00 0.00 0.00 0.00 0.00 0.00 0.00 0.00 0.00 0.00 0.00 0.00 0.00 0.00 0.00 0.00 0.00 0.00 0.00 0.00 0.01 0.01 0.01 0.01 0.01 0.01 0.00 0.01 0.02 0.07 0.13 0.19 0.24 0.31
0.00 0.00 0.00 0.00 0.00 0.00 0.00 0.00 0.00 0.00 0.00 0.00 0.00 0.00 0.00 0.01 0.00 0.00 0.00 0.00 0.00 0.00 0.00 0.00 0.00 0.00 0.01 0.00 0.00 0.01 0.02 0.01 0.01 0.01 0.02 0.02 0.01 0.01 0.02 0.05 0.12 0.19 0.25 0.31
0.00 0.00 0.00 0.00 0.00 0.00 0.00 0.00 0.00 0.00 0.00 0.00 0.00 0.00 0.00 0.01 0.01 0.00 0.01 0.00 0.00 0.00 0.00 0.00 0.00 0.00 0.01 0.01 0.01 0.02 0.05 0.05 0.06 0.05 0.06 0.06 0.02 0.02 0.03 0.06 0.12 0.20 0.23 0.26
0.00 0.00 0.00 0.00 0.00 0.00 0.00 0.00 0.00 0.00 0.00 0.00 0.00 0.00 0.00 0.00 0.00 0.00 0.00 0.01 0.00 0.00 0.00 0.00 0.00 0.00 0.01 0.01 0.02 0.03 0.03 0.04 0.06 0.06 0.06 0.07 0.04 0.03 0.04 0.07 0.11 0.16 0.19 0.23
0.00 0.00 0.00 0.00 0.00 0.00 0.00 0.00 0.00 0.00 0.00 0.00 0.00 0.00 0.00 0.00 0.00 0.00 0.00 0.00 0.00 0.00 0.00 0.00 0.01 0.01 0.00 0.00 0.00 0.03 0.05 0.02 0.04 0.07 0.07 0.08 0.07 0.06 0.07 0.09 0.13 0.17 0.24 0.30
0.00 0.00 0.00 0.00 0.00 0.00 0.00 0.00 0.00 0.00 0.00 0.00 0.00 0.00 0.00 0.00 0.00 0.00 0.00 0.00 0.00 0.00 0.00 0.00 0.01 0.00 0.00 0.00 0.00 0.01 0.04 0.04 0.05 0.10 0.07 0.05 0.06 0.08 0.07 0.08 0.11 0.14 0.20 0.25
0.00 0.00 0.00 0.00 0.00 0.00 0.00 0.00 0.00 0.00 0.00 0.00 0.00 0.00 0.01 0.00 0.01 0.01 0.01 0.00 0.00 0.00 0.00 0.00 0.01 0.00 0.00 0.00 0.00 0.00 0.01 0.03 0.04 0.06 0.07 0.06 0.06 0.08 0.07 0.08 0.10 0.12 0.15 0.18
0.00 0.00 0.00 0.00 0.00 0.00 0.00 0.00 0.00 0.00 0.00 0.00 0.00 0.00 0.00 0.00 0.01 0.01 0.01 0.00 0.01 0.01 0.01 0.01 0.01 0.01 0.01 0.00 0.00 0.00 0.00 0.01 0.02 0.04 0.05 0.05 0.05 0.07 0.08 0.09 0.10 0.11 0.12 0.13
0.00 0.00 0.00 0.00 0.00 0.00 0.00 0.00 0.00 0.00 0.00 0.00 0.00 0.00 0.01 0.01 0.00 0.00 0.00 0.00 0.00 0.00 0.00 0.01 0.01 0.02 0.00 0.00 0.00 0.00 0.00 0.00 0.00 0.01 0.02 0.04 0.04 0.04 0.05 0.06 0.07 0.08 0.09 0.09
0.00 0.00 0.00 0.00 0.00 0.00 0.00 0.00 0.00 0.00 0.00 0.00 0.00 0.00 0.00 0.00 0.00 0.00 0.00 0.00 0.00 0.01 0.01 0.01 0.02 0.02 0.00 0.00 0.00 0.00 0.00 0.00 0.00 0.00 0.01 0.01 0.02 0.03 0.04 0.04 0.04 0.04 0.04 0.03
0.00 0.00 0.00 0.00 0.00 0.00 0.00 0.00 0.00 0.00 0.00 0.00 0.00 0.00 0.00 0.01 0.00 0.00 0.00 0.00 0.00 0.01 0.01 0.02 0.02 0.01 0.01 0.00 0.01 0.00 0.00 0.00 0.00 0.00 0.00 0.01 0.01 0.01 0.01 0.02 0.02 0.02 0.01 0.00
0.00 0.00 0.00 0.00 0.00 0.00 0.00 0.00 0.00 0.00 0.00 0.00 0.00 0.00 0.00 0.00 0.00 0.00 0.01 0.00 0.00 0.01 0.01 0.02 0.02 0.02 0.01 0.01 0.00 0.00 0.00 0.00 0.00 0.00 0.00 0.00 0.00 0.00 0.00 0.00 0.00 0.00 0.00 0.00
0.00 0.00 0.00 0.00 0.00 0.00 0.00 0.00 0.00 0.00 0.00 0.00 0.00 0.00 0.00 0.00 0.00 0.00 0.00 0.00 0.01 0.00 0.01 0.01 0.01 0.01 0.01 0.01 0.01 0.00 0.00 0.00 0.00 0.00 0.00 0.00 0.00 0.00 0.00 0.00 0.00 0.00 0.00 0.00
0.00 0.00 0.00 0.00 0.00 0.00 0.00 0.00 0.00 0.00 0.00 0.00 0.00 0.00 0.00 0.00 0.00 0.00 0.00 0.00 0.00 0.00 0.01 0.01 0.01 0.01 0.01 0.01 0.01 0.00 0.00 0.00 0.00 0.00 0.00 0.00 0.00 0.00 0.00 0.00 0.00 0.00 0.00 0.00
0.00 0.00 0.00 0.00 0.00 0.00 0.00 0.00 0.00 0.00 0.00 0.00 0.00 0.00 0.00 0.00 0.00 0.00 0.00 0.00 0.00 0.00 0.01 0.01 0.01 0.00 0.00 0.00 0.00 0.00 0.00 0.00 0.00 0.00 0.00 0.00 0.00 0.00 0.00 0.00 0.00 0.00 0.00 0.00
MSLP
1017.68 1016.87 1016.14 1015.43 1014.92 1014.43 1014.09 1013.51 1013.31 1011.96 1011.78 1011.89 1011.21 1010.72 1010.99 1011.37 1010.51 1009.61 1009.57 1009.61 1009.53 1009.21 1009.72 1009.72 1009.78 1010.37 1010.40 1010.23 1009.82 1008.89 1008.23 1008.13 1007.96 1007.65 1007.24 1006.98 1006.73 1006.18 1005.22 1004.16 1003.13 1002.69 1002.70 1002.94
1017.58 1016.47 1015.67 1015.38 1015.52 1014.94 1014.72 1014.22 1013.12 1012.76 1013.04 1013.09 1012.23 1011.54 1011.44 1011.67 1011.14 1010.88 1011.62 1011.41 1010.52 1010.61 1010.61 1010.48 1010.90 1010.99 1010.85 1010.67 1009.93 1009.06 1008.61 1008.50 1008.32 1007.88 1007.61 1007.48 1006.90 1006.27 1005.38 1004.12 1003.16 1002.08 1001.92 1001.91
1017.15 1016.37 1015.96 1016.26 1016.64 1016.19 1016.03 1015.68 1015.20 1014.64 1014.90 1014.31 1013.45 1012.97 1013.14 1012.69 1012.92 1013.11 1012.92 1012.96 1012.60 1012.09 1011.92 1011.90 1011.99 1012.18 1011.93 1010.87 1009.96 1009.52 1009.24 1009.16 1008.84 1008.41 1007.86 1007.48 1007.06 1006.29 1005.49 1004.37 1003.26 1002.22 1001.50 1001.47
1017.73 1016.79 1016.68 1017.38 1017.13 1016.70 1016.75 1016.62 1016.60 1016.17 1015.67 1015.22 1014.64 1014.16 1013.81 1013.87 1013.71 1013.77 1013.76 1013.46 1013.14 1012.94 1012.90 1012.81 1012.81 1012.54 1011.71 1010.86 1010.68 1010.37 1010.06 1009.76 1009.35 1008.86 1008.20 1007.63 1007.01 1006.29 1005.44 1004.75 1003.51 1002.18 1001.19 1001.46
1018.71 1017.87 1017.32 1016.91 1017.26 1017.67 1017.59 1017.71 1017.79 1017.31 1016.30 1015.33 1014.61 1014.04 1014.80 1015.02 1014.84 1014.66 1014.46 1014.50 1014.24 1013.67 1013.18 1013.00 1012.73 1012.41 1012.05 1011.88 1011.89 1011.34 1010.68 1010.37 1009.90 1009.25 1008.23 1007.63 1007.02 1006.36 1005.70 1004.79 1003.68 1002.67 1001.52 1001.51
1019.20 1018.86 1018.52 1018.47 1017.77 1017.45 1017.17 1018.29 1018.45 1017.97 1017.10 1016.32 1015.83 1015.41 1015.98 1016.02 1015.80 1015.98 1015.94 1015.66 1015.26 1014.73 1014.29 1014.03 1014.06 1013.73 1013.27 1012.83 1012.43 1011.71 1011.18 1010.67 1010.26 1009.47 1008.43 1007.73 1007.15 1006.16 1005.42 1004.66 1003.73 1003.09 1002.68 1002.04
1020.41 1019.98 1019.62 1019.33 1018.47 1017.38 1018.30 1020.00 1019.16 1018.80 1018.54 1017.93 1017.51 1017.62 1017.23 1016.81 1016.59 1016.76 1016.80 1016.76 1016.52 1015.96 1015.50 1015.10 1014.84 1014.40 1013.66 1013.30 1012.82 1012.20 1011.54 1010.86 1010.02 1009.61 1008.72 1007.85 1006.93 1006.02 1005.04 1004.21 1003.62 1003.44 1003.40 1003.94
1021.11 1021.02 1020.71 1020.08 1019.15 1019.44 1020.48 1020.03 1019.85 1019.39 1019.11 1018.79 1018.62 1018.42 1017.90 1017.88 1017.88 1017.61 1017.58 1017.38 1017.17 1016.60 1016.40 1016.13 1015.62 1014.66 1014.17 1013.77 1013.30 1012.69 1012.00 1011.38 1010.78 1010.35 1008.66 1007.57 1006.91 1005.83 1004.87 1004.40 1004.16 1004.10 1004.37 1004.54
1021.56 1021.28 1021.08 1020.92 1020.84 1020.79 1020.62 1020.35 1020.20 1019.94 1019.63 1019.46 1019.10 1018.99 1018.96 1018.74 1018.69 1018.64 1018.39 1017.77 1017.44 1017.04 1016.62 1016.64 1016.28 1015.66 1015.20 1014.84 1013.73 1012.93 1012.43 1011.80 1011.13 1009.87 1008.36 1007.68 1006.77 1005.74 1005.30 1004.79 1004.70 1004.73 1004.86 1004.80
1021.17 1021.36 1021.08 1021.19 1021.08 1021.07 1020.84 1020.50 1020.29 1019.97 1019.92 1019.89 1019.84 1019.75 1019.54 1019.47 1019.52 1019.17 1018.72 1017.99 1017.82 1017.73 1017.44 1017.03 1016.59 1016.35 1016.15 1016.29 1014.98 1014.21 1013.35 1012.19 1010.71 1009.50 1008.52 1007.93 1007.10 1006.32 1005.84 1005.27 1004.79 1004.71 1004.82 1005.18
1020.87 1021.01 1020.97 1020.91 1021.10 1021.02 1020.66 1020.60 1020.48 1020.37 1020.40 1020.44 1020.40 1020.38 1020.34 1020.22 1020.23 1020.27 1020.15 1019.93 1019.56 1019.50 1019.18 1018.76 1018.38 1017.56 1016.31 1015.11 1014.30 1013.49 1012.68 1011.72 1010.85 1009.86 1009.03 1008.35 1007.65 1007.13 1006.48 1005.69 1004.95 1004.52 1004.72 1005.00
1020.83 1021.07 1021.18 1021.11 1020.84 1020.52 1020.68 1020.85 1020.97 1021.05 1021.07 1021.07 1021.14 1021.11 1021.05 1021.13 1021.31 1021.37 1021.21 1021.08 1020.56 1020.15 1019.55 1018.74 1017.80 1016.71 1015.87 1015.34 1014.69 1013.74 1012.93 1012.05 1011.18 1010.37 1009.67 1009.09 1008.62 1007.93 1007.34 1006.27 1005.30 1004.54 1004.69 1004.85
1020.41 1020.58 1020.82 1020.80 1020.96 1020.81 1021.21 1021.45 1021.60 1021.76 1021.94 1022.03 1022.04 1021.88 1021.73 1021.67 1021.84 1021.87 1021.75 1021.47 1021.02 1020.36 1019.68 1018.79 1017.92 1017.18 1016.27 1015.75 1015.02 1014.21 1013.33 1012.28 1011.48 1010.86 1010.46 1010.11 1009.65 1009.10 1008.58 1007.75 1006.73 1006.11 1005.50 1005.31
1020.30 1020.44 1020.94 1021.20 1021.63 1021.70 1021.91 1022.16 1022.31 1022.48 1022.57 1022.58 1022.55 1022.42 1022.41 1022.32 1022.21 1022.11 1021.91 1021.68 1021.09 1020.45 1019.74 1018.95 1018.06 1017.23 1016.40 1015.84 1015.21 1014.38 1013.52 1012.98 1012.48 1012.05 1011.56 1010.94 1010.41 1009.99 1009.58 1009.20 1008.62 1008.39 1007.99 1007.45
1020.86 1021.01 1021.53 1022.01 1022.17 1022.44 1022.77 1022.90 1023.06 1023.22 1023.17 1023.06 1023.03 1022.88 1022.68 1022.56 1022.33 1022.27 1021.91 1021.53 1021.05 1020.46 1019.80 1019.02 1018.13 1017.22 1016.44 1015.93 1015.35 1014.78 1014.16 1013.60 1013.26 1012.91 1012.42 1011.94 1011.58 1011.21 1010.83 1010.56 1010.11 1010.11 1010.02 1009.84
1021.77 1022.11 1022.46 1022.76 1023.17 1023.46 1023.70 1023.92 1023.98 1023.94 1023.81 1023.76 1023.65 1023.43 1023.14 1022.83 1022.53 1022.34 1021.98 1021.50 1021.31 1020.74 1019.91 1019.14 1018.27 1017.46 1016.80 1016.21 1015.77 1015.38 1014.93 1014.56 1014.07 1013.70 1013.39 1012.96 1012.66 1012.42 1012.34 1012.15 1012.04 1011.95 1011.86 1011.94
1022.49 1023.15 1023.59 1023.95 1024.23 1024.43 1024.62 1024.75 1024.83 1024.77 1024.50 1024.44 1024.33 1024.07 1023.45 1023.09 1022.79 1022.63 1022.28 1021.72 1021.25 1020.73 1020.11 1019.34 1018.57 1017.84 1017.32 1016.84 1016.48 1016.15 1015.75 1015.32 1015.00 1014.80 1014.54 1014.26 1013.94 1013.79 1013.71 1013.64 1013.68 1013.66 1013.71 1013.63
1023.72 1024.28 1024.68 1024.95 1025.12 1025.18 1025.33 1025.44 1025.56 1025.47 1025.37 1025.30 1025.04 1024.70 1024.08 1023.56 1023.27 1022.84 1022.38 1021.89 1021.32 1020.74 1020.24 1019.59 1018.87 1018.26 1017.81 1017.48 1017.11 1016.92 1016.57 1016.15 1015.90 1015.75 1015.64 1015.47 1015.27 1015.14 1015.12 1015.17 1015.23 1015.15 1015.14 1015.01
1024.66 1025.08 1025.47 1025.71 1025.81 1025.91 1026.16 1026.26 1026.28 1026.09 1026.01 1025.83 1025.57 1025.30 1024.69 1024.03 1023.51 1022.94 1022.46 1022.13 1021.76 1021.16 1020.54 1019.88 1019.24 1018.72 1018.36 1018.03 1017.81 1017.61 1017.31 1017.08 1016.86 1016.74 1016.66 1016.57 1016.41 1016.36 1016.44 1016.57 1016.67 1016.65 1016.53 1016.53
1025.51 1025.87 1026.20 1026.36 1026.47 1026.61 1026.77 1026.78 1026.80 1026.74 1026.54 1026.40 1026.13 1025.76 1025.06 1024.24 1023.68 1023.26 1022.82 1022.67 1022.19 1021.72 1020.98 1020.30 1019.62 1019.05 1018.80 1018.67 1018.47 1018.34 1018.14 1017.92 1017.80 1017.74 1017.69 1017.66 1017.68 1017.73 1017.84 1017.95 1018.09 1018.12 1018.16 1018.31
1026.04 1026.45 1026.75 1026.86 1027.06 1027.20 1027.27 1027.23 1027.32 1027.24 1026.98 1026.75 1026.93 1026.40 1025.62 1024.72 1024.15 1023.72 1023.45 1023.02 1022.45 1021.92 1021.28 1020.62 1020.03 1019.49 1019.36 1019.22 1019.10 1019.01 1018.89 1018.82 1018.72 1018.72 1018.73 1018.80 1018.85 1018.98 1019.09 1019.30 1019.36 1019.54 1019.58 1019.86
1026.59 1026.90 1027.13 1027.35 1027.56 1027.63 1027.39 1027.29 1027.13 1027.22 1027.25 1027.03 1026.63 1026.29 1025.62 1025.08 1024.54 1024.22 1024.02 1023.73 1022.89 1022.29 1021.64 1021.04 1020.49 1020.07 1019.91 1019.80 1019.76 1019.75 1019.69 1019.64 1019.65 1019.67 1019.72 1019.80 1019.88 1020.00 1020.19 1020.33 1020.54 1020.62 1020.73 1021.19
1026.89 1027.24 1027.55 1027.81 1027.99 1028.02 1027.54 1027.39 1027.47 1027.38 1027.22 1026.99 1026.78 1026.51 1026.07 1025.41 1025.03 1024.72 1024.26 1023.72 1023.23 1022.61 1022.01 1021.52 1021.05 1020.71 1020.54 1020.51 1020.50 1020.55 1020.58 1020.57 1020.58 1020.62 1020.73 1020.81 1020.85 1020.97 1021.15 1021.34 1021.51 1021.87 1022.34 1022.69
1027.18 1027.52 1027.78 1027.63 1027.79 1028.10 1028.36 1028.11 1027.59 1027.39 1027.11 1027.01 1026.76 1026.58 1026.35 1025.87 1025.31 1024.81 1024.50 1024.03 1023.63 1023.15 1022.71 1022.26 1021.84 1021.52 1021.33 1021.29 1021.29 1021.32 1021.43 1021.51 1021.57 1021.62 1021.74 1021.88 1022.09 1022.26 1022.41 1022.62 1022.93 1023.32 1023.53 1023.70
1027.59 1027.62 1027.74 1028.17 1028.35 1028.64 1028.53 1028.02 1027.72 1027.73 1027.57 1027.30 1027.04 1026.46 1026.14 1025.81 1025.67 1025.40 1024.98 1024.54 1024.17 1023.75 1023.39 1023.03 1022.71 1022.43 1022.30 1022.20 1022.15 1022.18 1022.28 1022.41 1022.46 1022.56 1022.80 1023.02 1023.20 1023.40 1023.63 1023.92 1024.16 1024.37 1024.54 1024.71
1027.57 1027.91 1028.15 1028.19 1028.38 1028.31 1028.18 1028.08 1028.48 1028.22 1028.01 1027.86 1027.50 1027.07 1026.49 1026.17 1025.84 1025.61 1025.53 1025.17 1024.85 1024.48 1024.20 1023.91 1023.64 1023.43 1023.28 1023.20 1023.14 1023.17 1023.21 1023.29 1023.37 1023.56 1023.68 1023.89 1024.11 1024.36 1024.62 1024.90 1025.23 1025.54 1025.78 1025.96
1027.79 1028.13 1028.45 1028.56 1028.38 1028.31 1028.27 1028.42 1028.62 1028.73 1028.29 1028.12 1028.03 1027.66 1027.06 1026.71 1026.46 1026.29 1026.10 1025.90 1025.59 1025.25 1025.00 1024.79 1024.59 1024.45 1024.34 1024.22 1024.16 1024.18 1024.23 1024.31 1024.39 1024.51 1024.64 1024.76 1024.94 1025.19 1025.53 1025.85 1026.16 1026.39 1026.58 1026.84
Thickness
5408 5416 5422 5429 5432 5438 5441 5448 5439 5468 5459 5453 5462 5469 5462 5462 5466 5476 5479 5478 5482 5494 5484 5492 5497 5496 5503 5507 5513 5523 5530 5531 5533 5536 5541 5545 5549 5557 5570 5585 5599 5607 5609 5612
5400 5420 5431 5429 5412 5419 5420 5426 5443 5449 5440 5442 5458 5467 5468 5457 5459 5461 5455 5458 5468 5470 5474 5479 5480 5484 5489 5494 5503 5515 5521 5521 5524 5527 5529 5532 5538 5546 5558 5573 5587 5602 5608 5612
5413 5421 5421 5417 5397 5408 5410 5410 5420 5425 5418 5426 5436 5444 5439 5443 5440 5438 5440 5439 5447 5454 5459 5463 5464 5466 5471 5485 5495 5502 5508 5508 5511 5516 5520 5522 5527 5536 5546 5559 5573 5592 5605 5609
5406 5413 5405 5398 5405 5406 5403 5398 5399 5404 5411 5414 5417 5427 5428 5431 5432 5431 5433 5438 5443 5447 5448 5450 5453 5457 5467 5477 5480 5486 5492 5494 5498 5504 5510 5514 5518 5527 5536 5544 5561 5583 5597 5593
5388 5409 5422 5415 5401 5391 5391 5395 5386 5388 5399 5407 5413 5429 5419 5416 5420 5424 5428 5426 5430 5437 5443 5445 5448 5453 5456 5459 5460 5468 5475 5479 5483 5488 5499 5504 5508 5514 5523 5533 5548 5565 5581 5581
5398 5400 5395 5391 5394 5397 5401 5394 5379 5385 5390 5396 5401 5409 5404 5402 5410 5408 5408 5411 5415 5423 5429 5432 5431 5435 5437 5442 5446 5452 5459 5465 5468 5475 5484 5491 5496 5505 5513 5524 5537 5547 5556 5569
5369 5377 5388 5381 5383 5399 5389 5365 5372 5375 5375 5379 5385 5381 5385 5392 5394 5394 5394 5395 5399 5405 5409 5412 5415 5419 5424 5426 5430 5435 5440 5446 5453 5458 5467 5477 5486 5494 5505 5518 5526 5532 5539 5535
5360 5331 5359 5373 5385 5378 5364 5365 5366 5368 5370 5371 5371 5372 5380 5379 5377 5381 5380 5384 5387 5391 5393 5396 5399 5406 5407 5409 5412 5417 5422 5426 5432 5435 5451 5465 5472 5483 5496 5503 5509 5514 5518 5523
5374 5376 5368 5366 5365 5361 5359 5362 5361 5364 5366 5367 5372 5371 5372 5371 5371 5372 5374 5380 5382 5384 5387 5384 5385 5389 5390 5390 5397 5403 5407 5413 5416 5427 5439 5448 5457 5470 5480 5488 5493 5498 5504 5510
5366 5366 5367 5362 5361 5358 5360 5363 5364 5369 5367 5365 5365 5364 5366 5367 5364 5367 5370 5375 5374 5370 5371 5371 5372 5372 5371 5364 5375 5380 5385 5394 5406 5416 5423 5431 5441 5451 5461 5471 5480 5487 5493 5496
5365 5365 5367 5365 5360 5358 5364 5364 5364 5364 5362 5360 5359 5359 5358 5357 5355 5352 5351 5349 5350 5345 5345 5344 5343 5346 5356 5366 5369 5374 5379 5385 5389 5397 5404 5411 5421 5430 5440 5453 5465 5476 5481 5484
5351 5361 5360 5360 5361 5368 5365 5361 5358 5355 5354 5353 5351 5349 5348 5344 5339 5336 5334 5331 5332 5332 5334 5338 5343 5348 5351 5352 5355 5361 5366 5371 5376 5381 5387 5391 5397 5409 5420 5435 5449 5462 5467 5472
5365 5367 5362 5363 5363 5362 5357 5353 5350 5347 5343 5340 5338 5337 5336 5336 5331 5328 5323 5322 5323 5326 5327 5332 5335 5336 5340 5341 5345 5349 5354 5360 5364 5369 5371 5373 5377 5385 5394 5410 5425 5436 5448 5457
5370 5369 5364 5357 5351 5351 5347 5345 5342 5339 5336 5333 5331 5330 5328 5326 5320 5314 5316 5315 5315 5318 5321 5323 5327 5329 5333 5335 5336 5340 5345 5347 5348 5349 5352 5358 5363 5369 5376 5385 5397 5406 5417 5427
5360 5359 5352 5347 5345 5342 5338 5336 5332 5329 5328 5326 5325 5324 5322 5320 5318 5314 5314 5313 5312 5312 5316 5319 5322 5325 5328 5329 5330 5331 5334 5335 5337 5338 5341 5344 5346 5350 5357 5365 5375 5382 5390 5398
5351 5347 5342 5338 5334 5331 5327 5323 5321 5319 5320 5317 5316 5314 5314 5313 5313 5310 5310 5311 5307 5310 5312 5314 5317 5320 5321 5322 5323 5323 5323 5324 5326 5328 5330 5333 5334 5335 5338 5344 5349 5356 5365 5373
5344 5336 5332 5326 5322 5319 5315 5313 5311 5310 5311 5309 5307 5305 5308 5308 5306 5302 5299 5301 5302 5302 5305 5308 5311 5313 5313 5314 5313 5312 5313 5314 5314 5315 5317 5319 5319 5320 5322 5324 5328 5335 5341 5349
5327 5321 5316 5314 5311 5310 5307 5305 5302 5301 5299 5297 5295 5293 5296 5294 5293 5294 5294 5293 5296 5297 5298 5300 5303 5305 5306 5305 5305 5304 5304 5305 5305 5305 5305 5306 5307 5308 5308 5306 5309 5316 5322 5329
5316 5312 5308 5305 5302 5300 5296 5294 5293 5291 5287 5286 5285 5282 5283 5285 5285 5287 5285 5285 5286 5290 5290 5291 5294 5296 5297 5298 5298 5297 5297 5297 5298 5296 5297 5297 5298 5298 5298 5296 5294 5297 5303 5308
5307 5302 5298 5296 5294 5292 5289 5286 5282 5280 5278 5275 5271 5272 5276 5277 5275 5274 5274 5273 5274 5276 5279 5282 5285 5287 5288 5288 5288 5288 5288 5289 5289 5288 5287 5287 5287 5287 5285 5285 5284 5286 5287 5287
5299 5296 5291 5288 5284 5279 5273 5273 5268 5270 5268 5261 5256 5257 5261 5264 5260 5259 5261 5263 5264 5266 5269 5273 5275 5278 5277 5278 5278 5278 5279 5280 5280 5278 5278 5276 5276 5275 5275 5273 5274 5274 5277 5276
5284 5279 5277 5273 5268 5267 5267 5266 5267 5259 5254 5251 5249 5247 5252 5255 5252 5248 5248 5248 5253 5255 5258 5260 5263 5265 5266 5266 5267 5266 5268 5269 5269 5269 5268 5267 5267 5266 5265 5264 5263 5265 5267 5263
5274 5271 5266 5261 5260 5259 5258 5258 5254 5249 5245 5244 5239 5238 5239 5243 5240 5238 5236 5242 5243 5244 5244 5243 5245 5248 5251 5253 5254 5254 5254 5255 5256 5257 5256 5256 5257 5256 5256 5255 5255 5253 5250 5248
5266 5263 5262 5259 5254 5254 5251 5246 5246 5244 5239 5239 5234 5229 5228 5228 5228 5232 5232 5232 5231 5230 5228 5225 5225 5230 5236 5239 5241 5242 5242 5242 5242 5243 5243 5242 5242 5242 5242 5241 5240 5238 5237 5237
5259 5256 5253 5251 5246 5241 5238 5236 5237 5232 5231 5230 5225 5225 5224 5223 5220 5220 5219 5221 5221 5219 5216 5214 5214 5218 5222 5226 5228 5229 5229 5229 5230 5230 5228 5227 5227 5227 5226 5225 5225 5224 5225 5224
5253 5247 5243 5240 5236 5232 5230 5227 5222 5216 5215 5216 5215 5214 5213 5212 5213 5213 5210 5209 5209 5208 5207 5205 5205 5207 5210 5213 5215 5216 5217 5217 5217 5216 5215 5215 5215 5213 5213 5212 5211 5209 5208 5207
5243 5237 5232 5227 5225 5222 5220 5214 5211 5207 5204 5201 5202 5200 5201 5201 5200 5199 5197 5195 5196 5197 5196 5195 5194 5195 5196 5198 5200 5202 5202 5202 5203 5203 5203 5203 5202 5201 5200 5198 5197 5196 5195 5193